Theta_e
312 312 313 313 313 311 309 308 308 308 307 307 307 308 309 311 312 313 313 316 322 321 320 319 317 317 316 316 315 315 315 315 314 314 314 313 313 312 312 312 311 311 310
312 311 311 312 311 310 308 307 306 305 305 305 305 305 305 306 308 309 308 312 320 322 319 319 318 316 316 315 315 314 314 314 313 312 312 312 311 311 310 310 309 309 308
313 311 310 310 310 309 308 305 304 303 302 302 303 304 302 302 302 303 304 306 312 319 320 318 318 317 317 316 315 314 314 313 312 311 311 310 310 309 309 308 308 307 306
316 314 313 313 312 312 309 306 305 303 303 303 302 301 301 301 301 299 299 301 302 306 316 321 318 317 316 316 315 315 314 313 312 311 310 310 309 308 307 307 306 305 304
318 316 314 314 313 311 309 306 303 303 300 299 299 298 298 298 297 297 298 298 299 301 302 311 316 317 316 316 316 315 315 314 312 311 310 309 308 307 307 305 304 304 303
319 317 315 313 312 311 308 306 301 299 298 299 297 294 293 293 293 295 296 297 296 297 298 299 300 304 315 315 315 316 315 314 312 310 309 309 308 307 306 305 303 302 301
321 318 317 314 312 310 310 306 300 297 294 294 293 290 289 288 289 291 292 293 294 294 294 295 296 299 302 315 315 315 316 315 313 311 309 308 308 306 305 304 303 302 301
322 319 318 315 313 311 309 305 302 296 294 294 294 290 292 292 287 289 289 292 292 295 292 293 294 295 298 300 304 314 315 315 314 312 310 308 307 306 305 304 302 301 301
325 323 320 318 314 313 309 307 304 302 298 291 294 296 288 291 288 285 288 289 291 293 293 292 293 293 295 296 303 307 313 313 313 312 310 308 307 306 305 303 302 301 300
328 325 323 320 317 314 312 308 306 305 305 296 294 294 293 292 291 291 286 286 288 289 292 293 293 293 293 294 296 299 302 309 312 311 310 308 307 305 304 303 302 301 300
327 327 325 322 319 317 314 312 308 305 306 304 297 294 295 292 290 288 295 288 284 287 290 291 293 293 292 294 294 296 302 305 309 309 308 307 306 304 303 302 301 300 300
323 325 324 324 321 319 316 313 310 307 306 307 302 303 298 293 294 290 288 294 284 286 287 289 290 292 294 292 294 295 299 303 306 305 305 304 303 302 301 301 300 300 300
311 319 319 321 322 320 318 315 311 308 306 306 305 301 303 301 303 296 295 295 287 287 285 287 287 289 291 292 292 293 296 301 304 304 303 302 301 299 298 298 299 298 298
312 315 316 318 318 319 317 315 312 308 306 305 305 305 303 303 303 301 298 295 292 286 285 287 287 287 289 290 292 293 293 297 302 302 301 300 299 297 297 297 297 297 297
305 305 307 314 315 315 315 315 312 308 307 305 304 304 304 303 302 302 300 299 298 296 297 287 286 287 288 288 290 291 290 293 298 299 298 298 298 297 296 296 296 297 296
301 300 301 302 306 311 313 313 312 309 306 305 304 303 303 303 302 302 300 297 298 297 295 298 287 286 287 287 288 289 289 291 293 295 295 296 297 296 296 295 295 296 295
298 298 298 298 299 300 302 306 308 309 306 304 304 302 302 303 302 301 300 297 296 296 293 297 287 286 285 286 286 287 287 287 287 292 293 295 295 295 295 294 295 294 295
296 296 296 296 297 298 298 299 301 303 304 304 304 303 302 302 300 301 300 295 296 296 294 293 289 282 283 285 285 284 285 286 285 290 292 293 294 294 293 293 293 292 293
294 293 293 293 295 297 300 301 302 302 302 303 303 300 301 299 297 298 298 296 294 294 293 292 292 282 282 283 283 283 283 284 285 287 291 292 292 293 293 292 291 291 292
290 290 290 290 290 291 295 296 296 299 300 301 301 300 299 297 297 296 295 295 293 291 290 289 284 281 281 282 282 280 280 282 281 284 286 288 290 290 291 292 291 290 288
287 287 287 287 287 288 291 292 292 294 295 296 295 294 294 294 293 296 294 293 291 289 286 286 285 280 279 279 279 280 280 279 280 281 282 283 284 285 286 289 287 287 287
285 285 285 285 285 286 291 293 294 292 290 290 291 291 290 288 290 292 294 295 291 288 286 286 286 282 282 281 281 279 279 277 276 281 279 279 282 281 281 283 285 287 287
284 283 283 283 283 284 290 292 292 290 289 289 288 288 287 287 286 288 290 292 293 293 292 288 286 284 282 281 281 279 279 279 279 279 279 278 280 279 282 283 287 288 287
282 282 282 282 281 282 289 290 290 288 287 287 287 287 287 287 286 285 286 286 287 287 288 288 285 284 284 283 282 282 280 280 280 279 281 277 279 279 281 281 286 286 285
279 281 281 281 280 282 288 289 288 286 286 286 286 285 286 285 286 288 285 284 284 283 287 287 287 287 287 286 284 282 280 279 276 277 280 278 276 276 277 277 278 282 283
282 282 281 280 281 283 286 287 287 285 285 285 283 283 284 285 286 287 285 284 281 281 283 283 284 286 286 285 286 284 281 279 276 275 278 277 274 274 272 273 273 274 274
Wind_Speed
4 4 3 3 3 3 3 3 3 3 4 4 4 5 5 4 4 2 2 5 11 11 9 9 7 7 7 8 8 9 10 10 10 11 11 11 12 12 13 13 13 13 13
4 4 4 3 3 3 3 3 3 3 3 2 3 3 3 3 3 3 2 3 10 11 10 9 9 8 7 7 8 8 9 10 10 10 11 11 10 11 11 11 11 11 11
6 5 4 4 4 4 5 4 3 3 3 2 1 1 1 3 3 3 2 2 3 9 11 12 11 10 10 10 9 9 10 10 10 10 10 10 10 10 10 10 9 9 9
9 8 6 5 4 4 3 3 3 3 2 2 2 2 1 1 3 2 2 3 3 3 6 11 13 13 12 12 12 12 12 11 11 11 11 10 10 9 9 8 8 7 6
10 8 7 6 8 6 5 5 2 2 3 3 2 1 1 2 3 2 5 4 5 5 4 3 11 12 14 14 14 14 13 14 14 13 12 11 10 10 8 7 6 5 4
12 10 7 7 8 7 6 6 5 2 2 3 2 0 2 3 3 3 4 4 4 5 4 5 3 4 12 17 16 16 16 15 15 14 13 12 11 10 9 7 6 4 2
13 12 8 8 9 10 11 9 4 4 2 3 3 2 3 5 5 5 4 4 6 6 5 5 4 4 4 17 19 19 18 17 17 16 15 14 12 11 10 8 7 5 3
12 12 11 10 11 8 10 11 9 4 3 7 3 2 3 3 5 9 7 8 9 5 6 6 6 6 5 4 7 21 22 21 19 19 17 16 14 12 11 9 8 7 5
13 14 15 12 12 10 10 12 13 15 9 6 7 6 1 7 1 1 10 8 9 7 7 6 7 6 6 5 9 12 21 23 22 21 19 17 15 13 12 11 9 8 7
12 13 15 14 13 11 12 13 13 13 9 10 5 10 5 4 5 3 3 6 9 11 12 9 9 9 8 6 9 10 13 15 20 21 21 19 17 15 14 13 11 9 8
11 12 13 14 14 11 13 15 12 14 13 9 10 3 11 3 0 3 6 3 3 9 11 12 10 10 11 10 8 11 17 17 16 16 18 19 18 17 16 14 11 10 10
7 10 9 12 14 13 13 13 15 16 15 14 10 11 9 7 11 9 9 10 4 4 9 8 10 11 10 9 11 14 17 18 18 13 14 16 17 17 16 15 12 11 10
4 9 10 9 8 11 12 11 12 14 15 15 17 12 12 11 8 7 9 7 5 4 4 7 10 10 10 9 12 17 20 21 21 19 17 16 18 18 16 15 13 10 9
6 7 7 8 8 9 11 10 9 11 12 13 16 14 10 10 9 9 8 7 7 6 5 6 7 11 11 11 14 20 13 23 22 22 18 20 19 20 18 16 13 10 10
4 6 7 9 9 8 8 9 8 10 10 11 13 13 12 10 9 8 8 10 11 12 13 7 7 12 11 11 15 14 14 21 24 23 22 20 22 23 18 17 13 11 9
5 6 7 7 8 11 10 8 9 7 9 9 8 11 11 10 10 9 10 10 11 13 16 5 8 5 10 9 13 14 15 20 25 26 25 24 24 20 21 15 13 12 8
6 6 7 7 8 8 8 11 12 11 10 9 10 11 14 13 11 10 9 9 11 10 15 11 2 4 8 10 9 11 11 12 13 29 25 24 22 21 20 15 13 8 11
5 6 6 7 7 8 8 10 11 11 13 14 14 13 14 9 13 12 9 12 12 11 11 18 4 4 6 10 10 12 10 9 9 21 24 25 23 24 17 14 13 7 11
6 6 6 7 8 9 9 11 13 13 13 14 14 12 14 11 11 10 11 10 10 10 10 10 7 2 2 6 6 7 9 9 8 17 24 24 23 19 17 17 10 11 10
7 7 6 7 7 7 8 10 9 13 13 12 12 12 11 12 13 12 12 13 11 9 9 8 4 3 3 4 7 8 7 5 7 8 12 14 16 19 19 16 11 10 4
7 7 7 6 6 6 7 9 9 11 12 12 9 8 8 10 13 15 9 10 9 8 6 8 7 4 4 4 11 6 7 5 5 3 7 7 7 7 8 10 7 7 7
7 7 7 7 7 5 11 16 13 9 9 9 10 7 7 8 10 14 16 18 14 11 11 8 9 8 10 6 7 8 6 7 5 5 8 8 7 7 5 5 9 11 11
9 9 8 6 6 6 14 15 14 8 7 7 7 6 6 5 7 9 13 17 17 21 19 10 10 9 7 9 9 10 8 6 3 5 5 5 5 4 5 6 15 13 11
8 9 9 9 7 6 12 13 12 6 6 7 7 8 8 7 7 7 7 7 8 8 9 6 5 4 5 9 11 7 8 5 6 6 4 3 3 4 5 4 11 11 7
5 5 6 8 7 7 12 10 9 5 6 7 6 6 7 7 9 12 7 6 3 1 5 10 10 12 13 16 12 8 8 7 2 2 4 3 2 3 1 2 1 5 11
9 7 8 6 7 7 12 12 10 4 6 5 2 4 9 8 11 12 6 6 5 5 6 5 6 9 12 12 16 6 7 7 4 2 3 4 2 3 2 0 2 2 4
Wind_Direction
161 150 157 151 137 124 136 136 129 129 126 125 120 135 137 124 138 150 124 184 143 153 164 158 158 150 152 148 148 144 136 129 128 120 115 113 113 108 103 97 91 85 79
158 161 163 175 158 153 141 149 156 149 137 132 149 147 148 121 159 162 156 230 157 174 180 176 173 175 171 167 164 162 154 144 142 140 130 126 121 116 110 104 98 92 84
168 164 166 181 178 163 155 140 121 103 121 103 167 233 202 170 179 183 189 243 174 176 188 196 191 186 184 182 183 177 176 166 161 157 151 144 138 133 125 117 109 100 93
181 176 179 191 167 167 158 163 158 141 166 190 159 172 193 331 324 311 306 285 254 190 207 204 192 199 202 200 198 192 194 186 179 174 166 164 159 151 144 135 125 114 99
185 187 192 186 169 170 173 167 151 149 172 165 166 169 208 224 232 260 247 241 259 230 197 209 213 205 204 209 207 207 202 197 191 186 182 178 175 170 162 154 144 129 109
191 190 192 179 172 174 171 182 158 150 157 171 136 263 289 284 276 243 246 260 242 254 236 209 197 199 202 212 213 210 210 207 204 201 198 193 190 185 181 176 168 158 149
188 193 195 188 183 188 193 177 140 175 162 140 110 307 284 227 232 252 253 252 250 237 233 230 220 206 214 213 215 217 216 216 215 209 211 206 202 198 198 194 193 196 206
189 189 199 196 195 192 183 176 180 147 161 175 160 35 260 307 250 222 205 214 227 220 241 236 224 223 219 214 222 221 220 217 214 216 215 214 213 209 210 209 212 219 229
198 197 198 199 197 199 197 192 190 186 196 186 221 157 174 222 99 170 230 221 217 230 222 225 231 235 223 223 219 228 229 225 217 216 216 215 217 220 221 221 225 234 248
207 203 203 199 200 198 201 201 199 204 188 203 198 239 247 152 203 279 246 234 212 212 222 219 218 218 221 223 219 218 236 248 226 219 215 214 214 220 227 230 233 240 250
216 220 209 202 203 204 207 205 204 207 208 200 205 161 221 191 223 291 266 232 278 248 225 218 218 221 209 216 218 216 219 227 231 218 216 216 215 218 227 234 234 243 249
225 228 218 211 209 209 207 208 206 204 209 218 208 217 197 182 215 205 241 255 218 238 230 225 234 222 223 213 216 208 218 224 223 208 212 219 223 225 228 234 235 243 253
220 234 229 223 214 216 216 210 207 210 212 214 217 215 222 226 228 213 227 237 237 246 242 218 222 230 222 209 211 209 209 223 214 208 205 218 225 228 230 233 233 238 249
224 231 237 242 238 230 214 212 210 213 208 215 222 226 227 234 229 221 222 221 251 224 210 242 222 220 219 219 219 204 210 216 216 212 209 220 226 230 227 228 228 229 242
234 235 230 240 245 238 228 219 220 217 215 216 225 225 228 231 230 230 225 223 244 268 261 207 226 211 215 212 212 206 205 205 209 217 218 222 225 227 226 226 224 229 242
243 239 241 234 243 248 248 239 240 221 218 222 220 224 225 227 227 223 224 220 228 247 270 236 216 185 204 210 213 209 210 204 210 215 217 225 226 221 224 220 217 225 247
250 239 235 238 236 235 233 242 245 249 236 224 218 219 228 225 231 229 223 216 227 225 251 258 187 175 193 200 198 201 205 200 201 208 207 223 225 220 219 217 218 215 248
276 259 251 241 238 232 226 228 237 239 243 246 245 236 240 233 233 232 226 222 227 224 236 258 218 181 195 203 192 194 196 197 190 195 203 219 222 219 209 214 214 214 249
293 281 257 248 245 239 240 240 243 243 241 240 240 229 235 227 234 234 234 230 222 227 226 243 247 161 165 181 182 189 195 193 188 184 202 214 218 210 204 213 201 234 234
306 302 280 263 252 246 248 253 253 258 256 250 247 238 229 224 232 233 233 237 229 220 215 225 211 177 170 177 181 181 186 184 178 176 192 203 204 209 210 207 216 214 211
311 296 293 283 267 252 252 249 243 243 249 251 244 238 236 235 235 237 238 235 216 219 209 215 214 179 173 169 191 176 184 162 164 161 170 181 194 193 212 207 180 185 218
314 312 305 289 287 262 258 260 254 248 241 246 252 244 235 239 251 251 249 241 209 208 215 215 224 217 208 186 171 170 161 154 176 175 175 184 177 189 159 140 195 206 230
326 320 310 302 293 288 290 280 265 253 243 243 246 245 244 232 237 251 257 255 239 227 224 215 226 210 187 179 160 163 168 164 145 143 162 160 169 167 169 193 207 218 225
321 316 314 311 306 294 305 297 280 261 249 245 243 247 249 252 232 238 244 248 244 228 236 232 210 190 184 168 168 161 149 120 92 123 140 185 146 185 166 174 212 211 209
299 290 292 299 297 293 310 311 298 271 262 254 247 241 244 247 237 250 241 240 200 127 139 150 150 152 158 158 143 131 144 150 97 139 173 108 151 114 120 131 164 201 171
297 302 302 293 292 300 313 316 310 271 270 265 245 260 259 255 254 248 225 187 175 162 134 119 134 147 147 158 159 156 145 155 113 129 164 140 145 139 169 122 159 67 118